{"data":{"norad_id":53128,"intl_designator":"2022-082A","name":"SUPERVIEW NEO-2 01","alt_names":[],"object_type":"PAYLOAD","status":"ACTIVE","operator":null,"country":"PRC","launch_date":"2022-07-15","launch_site_code":"TAISC","launch_vehicle":null,"mission":null,"orbit_class":"UNKNOWN","rcs_meters":null,"size_class":null,"mass_kg":null,"dimensions":null,"purposes":[],"wikipedia_slug":null,"has_3d_model":false,"image_url":null,"decayed_at":null,"tle_current":{"epoch":"2026-09-20T22:24:11.763072Z","epoch_age_seconds":100465,"freshness":"FRESH","line1":"1 53128U 22082A   26263.93346948  .00003161  00000+0  13149-3 0  9999","line2":"2 53128  97.3941 272.6467 0001750  89.1274 271.0164 15.24502251232793","mean_motion":15.24502251,"eccentricity":0.000175,"inclination_deg":97.3941,"raan_deg":272.6467,"arg_perigee_deg":89.1274,"mean_anomaly_deg":271.0164,"bstar":0.00013149,"rev_number":23279,"period_min":94.457059611124,"perigee_km":491.07816184213,"apogee_km":493.48280796184,"semimajor_km":6870.417484902,"source":"CELESTRAK","updated_at":"2026-09-21T09:00:08.875130Z"}}}